Location: Altmatt
(47.1333°N, 8.7000°E)
Time: 07:53:50
(UTC+00:00)

Cosmos 1980 - Pass Details

Date: 13 July 2020
Orbit: 839 x 847 km, 71.0° (Epoch: 04 August)

Event Time Altitude Azimuth Distance (km) Brightness Sun altitude
Rises 19:55:45 0° 187° (S) 3,378 6.5 -5.9°
Reaches altitude 10° 19:58:15 10° 182° (S) 2,448 5.7 -6.2°
Maximum altitude 20:03:37 48° 109° (ESE) 1,086 3.9 -6.9°
Drops below altitude 10° 20:09:02 10° 37° (NE) 2,466 6.2 -7.6°
Sets 20:11:33 0° 32° (NNE) 3,406 7.0 -7.9°
